International Falls, MN

3:58 AM CDT on July 21, 2017 (GMT -0500)
Falls International

Weather History for KINL - October, 2011

Change the Weather History Date:

Saturday, October 29, 2011

  Actual Average Record
Temperature  
Mean Temperature 29 °F 36 °F  
Max Temperature 40 °F 44 °F 72 °F (1950)
Min Temperature 17 °F 27 °F 6 °F (1988)
Degree Days  
Heating Degree Days 36 29  
Month to date heating degree days 519 682  
Since 1 July heating degree days 991 1216  
Cooling Degree Days 0 0  
Month to date cooling degree days 7 0  
Year to date cooling degree days 207 192  
Moisture  
Dew Point 27 °F    
Average Humidity 92    
Maximum Humidity 100    
Minimum Humidity 84    
Precipitation  
Precipitation 0.00 in 0.06 in 0.84 in (1996)
Month to date precipitation 1.08 1.97  
Year to date precipitation 18.31 21.92  
Snow  
Snow 0.00 in 0.10 in 2.80 in (1955)
Month to date snowfall T 1.9  
Since 1 July snowfall T 2.0  
Since 1 September snowfall T 2.0  
Snow Depth 0.00 in    
Sea Level Pressure  
Sea Level Pressure 29.99 in    
Wind  
Wind Speed 4 mph (ESE)    
Max Wind Speed 9 mph    
Max Gust Speed 12 mph    
Visibility 6 miles    
Events Fog    
T = Trace of Precipitation, MM = Missing Value Source: NWS Daily Summary

Daily Weather History Graph

Daily Weather History Graph

Search for Another Location

Airport or City:

Trip Planner

Search our weather history database for the weather conditions in past years. The results will help you decide how hot, cold, wet, or windy it might be!

Date:

Astronomy

Oct. 29, 2011 Rise Set
Actual Time 7:54 AM CDT 5:59 PM CDT
Civil Twilight 7:22 AM CDT 6:31 PM CDT
Nautical Twilight 6:45 AM CDT 7:08 PM CDT
Astronomical Twilight 6:08 AM CDT 7:44 PM CDT
Moon 11:33 AM CDT (10/29) 8:06 PM CDT (10/29)
Length of Visible Light 11h 09m
Length of Day
10h 04m
Waxing Crescent, 12% of the Moon is Illuminated
Oct 29
Waxing Crescent
Nov 2
First Quarter
Nov 10
Full
Nov 18
Last Quarter
Nov 25
New

Hourly Weather History & Observations

Time (CDT) Temp. Windchill Dew Point Humidity Pressure Visibility Wind Dir Wind Speed Gust Speed Precip Events Conditions
12:55 AM 30.0 °F - 28.9 °F 96% 30.01 in 10.0 mi Calm Calm - N/A   Scattered Clouds
1:55 AM 26.1 °F - 24.1 °F 92% 30.01 in 10.0 mi Calm Calm - N/A   Clear
2:31 AM 24.8 °F - 23.0 °F 93% 29.96 in 1.8 mi Calm Calm - N/A   Clear
2:41 AM 24.8 °F - 21.2 °F 86% 29.96 in 0.8 mi Calm Calm - N/A   Clear
2:45 AM 24.8 °F - 23.0 °F 93% 29.96 in 2.0 mi Calm Calm - N/A   Clear
2:53 AM 23.0 °F - 21.2 °F 93% 29.97 in 8.0 mi Calm Calm - N/A   Clear
2:55 AM 23.0 °F - 21.2 °F 93% 29.96 in 9.0 mi Calm Calm - N/A   Clear
3:55 AM 24.1 °F - 23.0 °F 96% 30.01 in 4.0 mi Calm Calm - N/A   Clear
4:55 AM 21.0 °F - 19.0 °F 92% 30.01 in 10.0 mi Calm Calm - N/A   Clear
5:55 AM 21.0 °F - 19.0 °F 92% 30.02 in 10.0 mi Calm Calm - N/A   Clear
6:55 AM 18.0 °F - 15.1 °F 88% 30.03 in 10.0 mi Calm Calm - N/A   Clear
7:51 AM 17.6 °F - 15.8 °F 93% 29.96 in 1.0 mi Calm Calm - N/A   Mist
7:55 AM 19.0 °F - 16.0 °F 88% 30.03 in 0.2 mi Calm Calm - N/A Fog Light Freezing Fog
8:05 AM 19.4 °F - 15.8 °F 86% 29.97 in 1.0 mi Calm Calm - N/A   Mist
8:08 AM 19.4 °F - 17.6 °F 93% 29.96 in 4.0 mi Calm Calm - N/A   Mostly Cloudy
8:55 AM 25.0 °F - 24.1 °F 96% 30.05 in 10.0 mi Calm Calm - N/A   Overcast
9:11 AM 26.6 °F - 24.8 °F 93% 29.98 in 1.8 mi Calm Calm - N/A   Overcast
9:21 AM 26.6 °F - 26.6 °F 100% 29.98 in 0.5 mi Calm Calm - N/A Fog Light Freezing Fog
9:28 AM 26.6 °F - 26.6 °F 100% 29.99 in 0.2 mi Calm Calm - N/A Fog Light Freezing Fog
9:55 AM 28.9 °F - 28.0 °F 96% 30.04 in 0.2 mi Calm Calm - N/A Fog Light Freezing Fog
10:27 AM 28.4 °F - 28.4 °F 100% 29.99 in 0.2 mi Calm Calm - N/A Fog Light Freezing Fog
10:55 AM 30.0 °F - 28.9 °F 96% 30.04 in 0.2 mi Calm Calm - N/A Fog Light Freezing Fog
11:55 AM 32.0 °F 28.7 °F 32.0 °F 100% 30.04 in 0.2 mi SSE 3.5 mph - N/A Fog Fog
12:55 PM 32.0 °F 28.7 °F 32.0 °F 100% 30.03 in 0.2 mi ESE 3.5 mph - N/A Fog Fog
1:42 PM 35.6 °F 30.7 °F 33.8 °F 93% 29.96 in 0.5 mi ESE 5.8 mph - N/A Fog Fog
1:55 PM 35.1 °F 32.2 °F 34.0 °F 96% 30.02 in 2.5 mi ESE 3.5 mph - N/A   Overcast
2:15 PM 35.6 °F 32.8 °F 35.6 °F 100% 29.96 in 4.0 mi East 3.5 mph - N/A   Overcast
2:55 PM 36.0 °F 31.1 °F 35.1 °F 97% 30.00 in 10.0 mi East 5.8 mph - N/A   Overcast
3:28 PM 37.4 °F 32.8 °F 35.6 °F 93% 29.94 in 10.0 mi ENE 5.8 mph - N/A   Scattered Clouds
3:55 PM 39.0 °F 33.4 °F 35.1 °F 86% 29.99 in 10.0 mi East 8.1 mph - N/A   Clear
5:55 PM 36.0 °F 30.3 °F 33.1 °F 89% 29.99 in 10.0 mi East 6.9 mph - N/A   Clear
6:55 PM 34.0 °F 27.2 °F 32.0 °F 92% 29.99 in 10.0 mi ESE 8.1 mph - N/A   Clear
7:55 PM 33.1 °F 26.9 °F 30.9 °F 92% 29.99 in 10.0 mi ESE 6.9 mph - N/A   Clear
8:55 PM 33.1 °F 26.1 °F 32.0 °F 96% 29.97 in 10.0 mi ESE 8.1 mph - N/A   Clear
9:55 PM 33.1 °F 26.9 °F 30.9 °F 92% 29.97 in 10.0 mi ESE 6.9 mph - N/A   Clear
10:55 PM 33.1 °F 26.9 °F 30.9 °F 92% 29.96 in 10.0 mi ESE 6.9 mph - N/A   Clear
11:55 PM 33.1 °F 28.7 °F 30.0 °F 89% 29.95 in 10.0 mi SE 4.6 mph - N/A   Clear